STARLINK-3765, 52295

Orbit data source: Space-Track

STARLINK-3765, 52295 is a payload satellite owned by SpaceX/Seattle (US) in LEO that was launched on Thu, 21 Apr 2022 UTC via an FALCON 9 launch vehicle from the Air Force Eastern Test Range (AFETR). Payload-class satellites include a variety of spacecraft equipped with specific instruments for various scientific and technological missions. These include communications satellites like Starlink; space stations such as the ISS; scientific satellites like the Hubble; Earth observation satellites from companies like Planet Labs, Umbra, and HawkEye 360; GPS; miniature CubeSats for education and research; and military/defense satellites.

Loading next visibility...
Identifier
52295, 2022-041AL
Orbit
LEO
Country
Flag of USUS
Related business
Manufacturer
SpaceX/Seattle
Mission
Operational Commercial Communications
Bus & Motor
STARLINK, Unknown motor
Mass
297 kg wet, ~275 kg dry
Launch date (UTC)
2022-04-21 (4 years ago)
Launch vehicle
FALCON 9
Launch site
Air Force Eastern Test Range (AFETR)
Object type
Payload
Rocket body
Debris
Shape & HBR
Box + 1 Pan, 10.1 m
Radar Cross Section
11.087 m², Large (>1 m²)

Expand to show TLE details & history
Last TLE update: 11 hours ago

TLE from 11 hours ago
0 STARLINK-3765
1 52295U 22041AL  26236.66668981  .00997990  00000-0  86916-2 0  9996
2 52295  53.1600  54.0939 0000909  77.1541 170.7971 15.65837276  5831
Epoch: 2026-08-24T16:00Z
TLE epoch observation values (Epoch: 2026-08-24T16:00:01.999Z)
Latitude
-48.06644°
Longitude
77.17091°
Altitude
387.9 km
Speed
7.677 km/s
True Right ascension
19h 20m 29s
True Declination
-47° 53' 10"
Sunlit
Object was in full shadow at epoch
Visualization orbit readout
Latitude
Unknown
Longitude
Unknown
Altitude
Unknown
Speed
Unknown
Apparent Right ascension
Unknown
Apparent Declination
Unknown
Sunlit
N/A
Visualization observer readout
Local Sidereal Time
18:13:49
Azimuth
Unknown
Elevation
Unknown
Doppler factor
Unknown
Orbital elements
Apogee altitude
371.706 km
Perigee altitude
370.479 km
Semi-major axis
6,749.229 km
Eccentricity
0.00009
Inclination
53.16°
RAAN
54.0939°
Arg. of periapsis
77.1541°
True anomaly
170.79877°
Mean anomaly
170.7971°
Eccentric anomaly
170.79793°
Mean motion
3.91437 °/min
Orbital period
91.97 mins
BSTAR
0.0086916
Loading maneuver chart data...
Computing Atmospheric mass density...
Loading historical data...
Loading historical data...
Loading historical data...
Loading historical data...
Loading historical data...
Loading historical data...
Loading historical data...

Documentation

Showing up to 5 results
|